STARLINK-1476 (45753 NORAD) Tracking and Keplerian Element Data

This shows tracking and keplerian element data for the satellite.

Feedback or suggestion? Click here.




ElementValue
Catalog45753
NameSTARLINK-1476
Epoch Orbit973
Epoch Day219.16667824
Epoch Year2020
RAAN32.7188
Inclination53.0006
Eccentricity0.0001985
Argument of Perigee37.0663
Mean Anonmoly108.4798
Mean Motion15.62766005
Decay Rate-0.00015062
L11 45753U 20038Z 20219.16667824 -.00015062 00000-0 -15885-3 0 9997
L22 45753 53.0006 32.7188 0001985 37.0663 108.4798 15.62766005 9731

Live tracking and technical data element details for STARLINK-1476 (NORAD 45753). STARLINK-1476 can be tracked NOW for your location showing map with azimuth and elevation plus other details from your city location.

Track the satellite on the map from your city or location and see movement details for azimuth, elevation, latitude, longitude, range, height, and movement on the map or in text.







IsCatalogInMostPopularTable: catalog: 45753, numindb: 12
Update: records affected: 1



GetName: 45753 STARLINK-1476

Hit Count: updated at: Sat, 08 Aug 2020 00:51:50 GMT